Location: Austin
(30.3000°N, 97.7500°W)
Time: 23:15:58
(UTC-05:00)

Cosmos 676 Rocket - Pass Details

Date: 06 May 2026
Orbit: 750 x 779 km, 74.0° (Epoch: 13 May)

Event Time Altitude Azimuth Distance (km) Brightness Sun altitude
Rises 22:32:54 0° 340° (NNW) 3,224 8.2 -26.9°
Reaches altitude 10° 22:35:17 10° 338° (NNW) 2,291 7.3 -27.2°
Enters shadow 22:40:24 66° 259° (W) 823 4.1 -28.1°
